H1 CPF 2 NER 2021 2 3 9 034 01 glonass143 H2 2007501 9143 46805 2021 2 3 0 0 0 2021 2 6 23 45 0 900 1 1 0 0 0 1 H9 10 0 59248 0.00000 0 -2011971.667 -14373094.487 20982204.366 10 0 59248 900.00000 0 -711774.323 -16501922.238 19442933.426 10 0 59248 1800.00000 0 325685.766 -18534607.104 17526205.758 10 0 59248 2700.00000 0 1101631.677 -20405870.918 15269180.787 10 0 59248 3600.00000 0 1629597.563 -22053834.573 12715635.126 10 0 59248 4500.00000 0 1934614.357 -23422522.995 9915117.943 10 0 59248 5400.00000 0 2051907.295 -24464143.185 6921992.681 10 0 59248 6300.00000 0 2025160.491 -25141039.727 3794383.273 10 0 59248 7200.00000 0 1904422.352 -25427245.333 593045.244 10 0 59248 8100.00000 0 1743740.911 -25309560.900 -2619816.297 10 0 59248 9000.00000 0 1598629.780 -24788119.157 -5781758.501 10 0 59248 9900.00000 0 1523472.696 -23876407.718 -8831318.315 10 0 59248 10800.00000 0 1568977.401 -22600750.147 -11709211.480 10 0 59248 11700.00000 0 1779787.542 -20999266.530 -14359489.122 10 0 59248 12600.00000 0 2192354.577 -19120357.031 -16730628.827 10 0 59248 13500.00000 0 2833160.647 -17020771.997 -18776538.718 10 0 59248 14400.00000 0 3717368.456 -14763349.438 -20457454.793 10 0 59248 15300.00000 0 4847956.083 -12414514.666 -21740714.094 10 0 59248 16200.00000 0 6215374.116 -10041646.558 -22601388.852 10 0 59248 17100.00000 0 7797740.543 -7710420.260 -23022769.592 10 0 59248 18000.00000 0 9561566.070 -5482236.999 -22996688.102 10 0 59248 18900.00000 0 11462980.395 -3411847.646 -22523674.329 10 0 59248 19800.00000 0 13449408.881 -1545268.436 -21612944.354 10 0 59248 20700.00000 0 15461630.165 81925.065 -20282219.815 10 0 59248 21600.00000 0 17436129.233 1445855.649 -18557382.291 10 0 59248 22500.00000 0 19307648.090 2535102.488 -16471969.233 10 0 59248 23400.00000 0 21011827.579 3350929.068 -14066521.144 10 0 59248 24300.00000 0 22487830.056 3906972.883 -11387792.514 10 0 59248 25200.00000 0 23680833.230 4228411.337 -8487841.737 10 0 59248 26100.00000 0 24544290.647 4350640.260 -5423017.761 10 0 59248 27000.00000 0 25041864.076 4317522.002 -2252863.265 10 0 59248 27900.00000 0 25148946.717 4179278.216 961044.124 10 0 59248 28800.00000 0 24853713.303 3990117.302 4156289.639 10 0 59248 29700.00000 0 24157653.093 3805697.719 7270834.620 10 0 59248 30600.00000 0 23075563.487 3680535.129 10244221.341 10 0 59248 31500.00000 0 21635004.660 3665463.553 13018745.700 10 0 59248 32400.00000 0 19875238.189 3805258.325 15540575.005 10 0 59248 33300.00000 0 17845694.154 4136521.559 17760789.284 10 0 59248 34200.00000 0 15604030.809 4685919.691 19636326.183 10 0 59248 35100.00000 0 13213867.683 5468847.699 21130811.658 10 0 59248 36000.00000 0 10742286.272 6488576.674 22215260.971 10 0 59248 36900.00000 0 8257201.957 7735921.123 22868636.993 10 0 59248 37800.00000 0 5824715.807 9189440.740 23078255.622 10 0 59248 38700.00000 0 3506555.478 10816169.146 22840030.877 10 0 59248 39600.00000 0 1357710.735 12572840.152 22158555.156 10 0 59248 40500.00000 0 -575639.186 14407561.461 21047013.064 10 0 59248 41400.00000 0 -2257821.204 16261867.066 19526930.182 10 0 59248 42300.00000 0 -3664917.318 18073063.610 17627761.156 10 0 59248 43200.00000 0 -4785515.748 19776773.639 15386324.378 10 0 59248 44100.00000 0 -5620933.777 21309570.046 12846093.462 10 0 59248 45000.00000 0 -6184903.689 22611591.848 10056358.550 10 0 59248 45900.00000 0 -6502735.737 23629031.818 7071273.106 10 0 59248 46800.00000 0 -6609993.988 24316391.466 3948804.273 10 0 59248 47700.00000 0 -6550741.448 24638408.260 749607.065 10 0 59248 48600.00000 0 -6375429.213 24571573.510 -2464155.642 10 0 59248 49500.00000 0 -6138519.522 24105176.394 -5630024.105 10 0 59248 50400.00000 0 -5895943.987 23241829.468 -8686459.548 10 0 59248 51300.00000 0 -5702505.364 21997452.895 -11574044.616 10 0 59248 52200.00000 0 -5609333.660 20400717.400 -14236642.545 10 0 59248 53100.00000 0 -5661505.046 18491968.907 -16622491.898 10 0 59248 54000.00000 0 -5895925.105 16321679.560 -18685215.278 10 0 59248 54900.00000 0 -6339566.682 13948489.767 -20384722.243 10 0 59248 55800.00000 0 -7008137.464 11436922.980 -21687988.822 10 0 59248 56700.00000 0 -7905234.241 8854868.502 -22569698.668 10 0 59248 57600.00000 0 -9022020.185 6270937.082 -23012733.709 10 0 59248 58500.00000 0 -10337439.416 3751799.254 -23008505.036 10 0 59248 59400.00000 0 -11818960.544 1359616.801 -22557117.941 10 0 59248 60300.00000 0 -13423818.649 -850326.382 -21667368.136 10 0 59248 61200.00000 0 -15100704.201 -2831696.084 -20356569.338 10 0 59248 62100.00000 0 -16791828.668 -4548796.951 -18650215.602 10 0 59248 63000.00000 0 -18435280.677 -5977809.751 -16581484.814 10 0 59248 63900.00000 0 -19967574.262 -7107526.263 -14190592.926 10 0 59248 64800.00000 0 -21326282.526 -7939552.480 -11524011.255 10 0 59248 65700.00000 0 -22452646.332 -8487973.048 -8633561.965 10 0 59248 66600.00000 0 -23294048.424 -8778492.393 -5575409.353 10 0 59248 67500.00000 0 -23806248.989 -8847090.140 -2408966.618 10 0 59248 68400.00000 0 -23955288.555 -8738248.723 804260.411 10 0 59248 69300.00000 0 -23718978.092 -8502829.151 4001869.735 10 0 59248 70200.00000 0 -23087913.519 -8195685.655 7121776.245 10 0 59248 71100.00000 0 -22065971.872 -7873120.849 10103417.526 10 0 59248 72000.00000 0 -20670268.174 -7590289.577 12888928.660 10 0 59248 72900.00000 0 -18930574.714 -7398661.635 15424263.187 10 0 59248 73800.00000 0 -16888226.823 -7343650.808 17660238.622 10 0 59248 74700.00000 0 -14594560.777 -7462510.484 19553486.470 10 0 59248 75600.00000 0 -12108948.642 -7782584.684 21067288.866 10 0 59248 76500.00000 0 -9496511.539 -8319988.360 22172286.225 10 0 59248 77400.00000 0 -6825605.923 -9078772.681 22847042.797 10 0 59248 78300.00000 0 -4165186.652 -10050610.814 23078459.764 10 0 59248 79200.00000 0 -1582155.442 -11215017.977 22862028.343 10 0 59248 80100.00000 0 861196.073 -12540097.294 22201918.187 10 0 59248 81000.00000 0 3109543.590 -13983781.132 21110899.380 10 0 59248 81900.00000 0 5116590.829 -15495516.969 19610099.218 10 0 59248 82800.00000 0 6846748.924 -17018328.159 17728597.995 10 0 59248 83700.00000 0 8276365.557 -18491164.203 15502870.949 10 0 59248 84600.00000 0 9394453.497 -19851442.786 12976086.403 10 0 59248 85500.00000 0 10202888.787 -21037677.416 10197273.022 10 0 59249 0.00000 0 10716071.106 -21992080.623 7220371.799 10 0 59249 900.00000 0 10960061.181 -22663032.974 4103190.318 10 0 59249 1800.00000 0 10971232.361 -23007314.539 906280.490 10 0 59249 2700.00000 0 10794493.539 -22992002.702 -2308239.659 10 0 59249 3600.00000 0 10481159.524 -22595957.447 -5477896.016 10 0 59249 4500.00000 0 10086559.278 -21810829.358 -8541076.487 10 0 59249 5400.00000 0 9667484.024 -20641547.610 -11438232.883 10 0 59249 6300.00000 0 9279583.950 -19106266.343 -14113042.653 10 0 59249 7200.00000 0 8974824.305 -17235770.953 -16513507.251 10 0 59249 8100.00000 0 8799109.223 -15072368.527 -18592965.484 10 0 59249 9000.00000 0 8790174.281 -12668308.336 -20311001.939 10 0 59249 9900.00000 0 8975837.367 -10083798.058 -21634232.806 10 0 59249 10800.00000 0 9372682.127 -7384698.179 -22536954.011 10 0 59249 11700.00000 0 9985229.958 -4639990.318 -23001639.379 10 0 59249 12600.00000 0 10805635.784 -1919124.606 -23019279.430 10 0 59249 13500.00000 0 11813920.836 710644.009 -22589554.579 10 0 59249 14400.00000 0 12978733.077 3186820.325 -21720839.605 10 0 59249 15300.00000 0 14258603.641 5454028.313 -20430039.421 10 0 59249 16200.00000 0 15603646.931 7466068.093 -18742259.355 10 0 59249 17100.00000 0 16957633.245 9187585.860 -16690316.230 10 0 59249 18000.00000 0 18260347.123 10595288.157 -14314099.617 10 0 59249 18900.00000 0 19450132.396 11678651.094 -11659795.512 10 0 59249 19800.00000 0 20466517.052 12440096.215 -8778987.373 10 0 59249 20700.00000 0 21252807.362 12894626.939 -5727652.070 10 0 59249 21600.00000 0 21758541.988 13068942.343 -2565070.316 10 0 59249 22500.00000 0 21941702.533 13000066.876 647327.031 10 0 59249 23400.00000 0 21770587.190 12733555.013 3847153.968 10 0 59249 24300.00000 0 21225268.332 12321347.688 6972282.126 10 0 59249 25200.00000 0 20298572.424 11819371.947 9962047.442 10 0 59249 26100.00000 0 18996540.716 11284985.890 12758426.990 10 0 59249 27000.00000 0 17338351.071 10774377.304 15307163.076 10 0 59249 27900.00000 0 15355703.772 10340026.106 17558812.905 10 0 59249 28800.00000 0 13091696.610 10028337.740 19469703.705 10 0 59249 29700.00000 0 10599235.714 9877547.302 21002775.284 10 0 59249 30600.00000 0 7939047.709 9915982.546 22128294.331 10 0 59249 31500.00000 0 5177375.295 10160758.823 22824427.164 10 0 59249 32400.00000 0 2383451.135 10616960.827 23077660.505 10 0 59249 33300.00000 0 -373146.000 11277345.698 22883062.540 10 0 59249 34200.00000 0 -3025144.096 12122580.298 22244379.444 10 0 59249 35100.00000 0 -5510130.754 13122003.283 21173965.527 10 0 59249 36000.00000 0 -7772901.173 14234880.685 19692548.035 10 0 59249 36900.00000 0 -9767504.638 15412103.118 17828830.692 10 0 59249 37800.00000 0 -11458905.361 16598254.193 15618942.977 10 0 59249 38700.00000 0 -12824189.351 17733963.974 13105745.034 10 0 59249 39600.00000 0 -13853267.607 18758449.105 10338000.990 10 0 59249 40500.00000 0 -14549046.945 19612133.043 7369436.092 10 0 59249 41400.00000 0 -14927061.955 20239236.113 4257695.505 10 0 59249 42300.00000 0 -15014584.079 20590225.949 1063224.871 10 0 59249 43200.00000 0 -14849246.013 20624024.472 -2151905.553 10 0 59249 44100.00000 0 -14477240.018 20309877.545 -5325210.041 10 0 59249 45000.00000 0 -13951166.876 19628807.509 -8395005.742 10 0 59249 45900.00000 0 -13327627.066 18574586.354 -11301615.975 10 0 59249 46800.00000 0 -12664656.686 17154187.457 -13988534.469 10 0 59249 47700.00000 0 -12019117.138 15387695.883 -16403527.358 10 0 59249 48600.00000 0 -11444149.526 13307680.080 -18499651.118 10 0 59249 49500.00000 0 -10986801.790 10958050.443 -20236166.524 10 0 59249 50400.00000 0 -10685929.110 8392451.856 -21579330.778 10 0 59249 51300.00000 0 -10570456.466 5672256.718 -22503052.628 10 0 59249 52200.00000 0 -10658076.732 2864241.559 -22989398.046 10 0 59249 53100.00000 0 -10954439.269 38043.593 -23028936.918 10 0 59249 54000.00000 0 -11452863.219 -2736497.568 -22620924.392 10 0 59249 54900.00000 0 -12134587.637 -5392003.112 -21773313.563 10 0 59249 55800.00000 0 -12969547.992 -7866112.991 -20502599.418 10 0 59249 56700.00000 0 -13917646.438 -10103833.081 -18833497.064 10 0 59249 57600.00000 0 -14930462.517 -12059574.758 -16798460.405 10 0 59249 58500.00000 0 -15953332.331 -13698802.794 -14437050.466 10 0 59249 59400.00000 0 -16927708.694 -14999223.977 -11795165.503 10 0 59249 60300.00000 0 -17793702.803 -15951467.944 -8924147.672 10 0 59249 61200.00000 0 -18492700.189 -16559232.949 -5879783.697 10 0 59249 62100.00000 0 -18969940.467 -16838891.745 -2721219.015 10 0 59249 63000.00000 0 -19176951.826 -16818575.498 490193.313 10 0 59249 63900.00000 0 -19073737.254 -16536775.450 3692086.113 10 0 59249 64800.00000 0 -18630619.955 -16040522.454 6822290.563 10 0 59249 65700.00000 0 -17829669.773 -15383222.119 9820043.717 10 0 59249 66600.00000 0 -16665650.145 -14622237.677 12627167.306 10 0 59249 67500.00000 0 -15146445.279 -13816323.123 15189194.898 10 0 59249 68400.00000 0 -13292949.068 -13023015.201 17456425.647 10 0 59249 69300.00000 0 -11138419.809 -12296094.279 19384884.423 10 0 59249 70200.00000 0 -8727327.006 -11683220.954 20937170.243 10 0 59249 71100.00000 0 -6113737.544 -11223847.609 22083177.136 10 0 59249 72000.00000 0 -3359307.616 -10947492.438 22800674.098 10 0 59249 72900.00000 0 -530962.926 -10872448.167 23075733.511 10 0 59249 73800.00000 0 2301637.628 -11004979.469 22903000.195 10 0 59249 74700.00000 0 5068750.487 -11339042.722 22285796.097 10 0 59249 75600.00000 0 7703199.511 -11856539.970 21236058.629 10 0 59249 76500.00000 0 10142922.613 -12528096.720 19774113.541 10 0 59249 77400.00000 0 12333308.147 -13314331.386 17928286.248 10 0 59249 78300.00000 0 14229224.839 -14167563.545 15734358.458 10 0 59249 79200.00000 0 15796661.555 -15033889.748 13234879.873 10 0 59249 80100.00000 0 17013909.118 -15855539.946 10478347.564 10 0 59249 81000.00000 0 17872235.376 -16573415.578 7518268.379 10 0 59249 81900.00000 0 18376025.803 -17129702.356 4412122.021 10 0 59249 82800.00000 0 18542384.141 -17470447.299 1220244.911 10 0 59249 83700.00000 0 18400210.434 -17547990.724 -1995343.494 10 0 59249 84600.00000 0 17988795.788 -17323149.778 -5172148.833 10 0 59249 85500.00000 0 17355993.652 -16767060.350 -8248420.315 10 0 59250 0.00000 0 16556045.411 -15862598.631 -11164355.298 10 0 59250 900.00000 0 15647152.797 -14605320.718 -13863266.249 10 0 59250 1800.00000 0 14688899.868 -13003880.864 -16292685.987 10 0 59250 2700.00000 0 13739634.665 -11079907.486 -18405390.415 10 0 59250 3600.00000 0 12853920.549 -8867343.200 -20160317.952 10 0 59250 4500.00000 0 12080165.702 -6411274.233 -21523367.949 10 0 59250 5400.00000 0 11458530.510 -3766297.862 -22468062.777 10 0 59250 6300.00000 0 11019201.028 -994495.037 -22976061.000 10 0 59250 7200.00000 0 10781101.071 1836907.872 -23037511.969 10 0 59250 8100.00000 0 10751096.862 4658091.604 -22651245.307 10 0 59250 9000.00000 0 10923727.421 7399305.300 -21824791.834 10 0 59250 9900.00000 0 11281471.722 9993526.472 -20574235.695 10 0 59250 10800.00000 0 11795541.091 12379009.795 -18923900.545 10 0 59250 11700.00000 0 12427163.240 14501619.403 -16905875.827 10 0 59250 12600.00000 0 13129303.603 16316848.307 -14559392.172 10 0 59250 13500.00000 0 13848751.234 17791441.647 -11930057.933 10 0 59250 14400.00000 0 14528481.065 18904556.947 -9068971.488 10 0 59250 15300.00000 0 15110192.609 19648413.836 -6031726.662 10 0 59250 16200.00000 0 15536917.632 20028407.156 -2877330.624 10 0 59250 17100.00000 0 15755586.341 20062679.877 332944.500 10 0 59250 18000.00000 0 15719443.335 19781174.868 3536753.582 10 0 59250 18900.00000 0 15390210.894 19224206.576 6671890.527 10 0 59250 19800.00000 0 14739907.828 18440613.755 9677496.555 10 0 59250 20700.00000 0 13752246.744 17485571.852 12495240.893 10 0 59250 21600.00000 0 12423550.310 16418157.923 15070450.947 10 0 59250 22500.00000 0 10763147.335 15298770.935 17353170.089 10 0 59250 23400.00000 0 8793231.406 14186516.263 19299122.789 10 0 59250 24300.00000 0 6548187.123 13136664.245 20870568.876 10 0 59250 25200.00000 0 4073411.155 12198289.333 22037030.965 10 0 59250 26100.00000 0 1423676.313 11412188.528 22775881.580 10 0 59250 27000.00000 0 -1338894.393 10809165.950 23072779.178 10 0 59250 27900.00000 0 -4147160.726 10408754.939 22921945.161 10 0 59250 28800.00000 0 -6931509.452 10218430.892 22326276.692 10 0 59250 29700.00000 0 -9622505.436 10233347.496 21297293.201 10 0 59250 30600.00000 0 -12153540.760 10436607.296 19854917.324 10 0 59250 31500.00000 0 -14463372.742 10800055.291 18027094.046 10 0 59250 32400.00000 0 -16498446.323 11285562.338 15849254.751 10 0 59250 33300.00000 0 -18214904.873 11846744.698 13363635.791 10 0 59250 34200.00000 0 -19580206.110 12431047.519 10618464.062 10 0 59250 35100.00000 0 -20574276.103 12982104.654 7667024.750 10 0 59250 36000.00000 0 -21190153.435 13442275.236 4566628.858 10 0 59250 36900.00000 0 -21434096.779 13755249.702 1377500.413 10 0 59250 37800.00000 0 -21325151.686 13868614.706 -1838394.967 10 0 59250 38700.00000 0 -20894195.174 13736267.798 -5018557.133 10 0 59250 39600.00000 0 -20182498.703 13320578.904 -8101170.020 10 0 59250 40500.00000 0 -19239870.627 12594206.220 -11026307.588 10 0 59250 41400.00000 0 -18122456.926 11541488.608 -13737103.022 10 0 59250 42300.00000 0 -16890293.495 10159354.605 -16180857.838 10 0 59250 43200.00000 0 -15604713.683 8457708.467 -18310068.993 10 0 59250 44100.00000 0 -14325720.696 6459275.817 -20083353.808 10 0 59250 45000.00000 0 -13109435.781 4198914.254 -21466254.682 10 0 59250 45900.00000 0 -12005729.666 1722416.734 -22431908.144 10 0 59250 46800.00000 0 -11056136.719 -915143.266 -22961565.521 10 0 59250 47700.00000 0 -10292139.258 -3651456.563 -23044955.445 10 0 59250 48600.00000 0 -9733893.624 -6419328.665 -22680481.474 10 0 59250 49500.00000 0 -9389450.991 -9149238.684 -21875251.276 10 0 59250 50400.00000 0 -9254505.043 -11772000.892 -20644936.925 10 0 59250 51300.00000 0 -9312676.467 -14221418.884 -19013469.086 10 0 59250 52200.00000 0 -9536321.666 -16436822.567 -17012570.895 10 0 59250 53100.00000 0 -9887831.057 -18365382.859 -14681140.506 10 0 59250 54000.00000 0 -10321361.707 -19964108.353 -12064494.077 10 0 59250 54900.00000 0 -10784930.703 -21201441.287 -9213483.804 10 0 59250 55800.00000 0 -11222780.444 -22058386.847 -6183508.118 10 0 59250 56700.00000 0 -11577915.449 -22529129.406 -3033433.402 10 0 59250 57600.00000 0 -11794703.030 -22621110.779 175551.689 10 0 59250 58500.00000 0 -11821427.405 -22354568.144 3381126.590 10 0 59250 59400.00000 0 -11612688.838 -21761552.040 6521050.445 10 0 59250 60300.00000 0 -11131545.922 -20884466.654 9534371.124 10 0 59250 61200.00000 0 -10351310.067 -19774194.620 12362607.797 10 0 59250 62100.00000 0 -9256915.962 -18487885.869 14950884.052 10 0 59250 63000.00000 0 -7845809.631 -17086503.948 17248989.680 10 0 59250 63900.00000 0 -6128316.110 -15632233.139 19212350.722 10 0 59250 64800.00000 0 -4127470.418 -14185855.200 20802889.506 10 0 59250 65700.00000 0 -1878317.918 -12804205.480 21989758.581 10 0 59250 66600.00000 0 573287.734 -11537814.578 22749934.952 10 0 59250 67500.00000 0 3172340.202 -10428833.692 23068663.723 10 0 59250 68400.00000 0 5856721.978 -9509329.789 22939743.039 10 0 59250 69300.00000 0 8559548.197 -8800021.304 22365645.055 10 0 59250 70200.00000 0 11211716.633 -8309506.629 21357470.633 10 0 59250 71100.00000 0 13744559.212 -8034017.185 19934738.368 10 0 59250 72000.00000 0 16092485.830 -7957705.098 18125011.566 10 0 59250 72900.00000 0 18195511.472 -8053453.151 15963369.720 10 0 59250 73800.00000 0 20001562.140 -8284172.890 13491733.950 10 0 59250 74700.00000 0 21468463.854 -8604536.227 10758058.770 10 0 59250 75600.00000 0 22565532.061 -8963067.525 7815405.205 10 0 59250 76500.00000 0 23274695.106 -9304507.793 4720912.757 10 0 59250 77400.00000 0 23591104.780 -9572350.870 1534690.043 10 0 59250 78300.00000 0 23523208.406 -9711443.939 -1681354.322 10 0 59250 79200.00000 0 23092279.560 -9670541.751 -4864717.605 10 0 59250 80100.00000 0 22331427.317 -9404705.649 -7953521.596 10 0 59250 81000.00000 0 21284126.017 -8877444.936 -10887719.751 10 0 59250 81900.00000 0 20002327.808 -8062508.894 -13610268.778 10 0 59250 82800.00000 0 18544237.824 -6945252.597 -16068241.246 10 0 59250 83700.00000 0 16971846.089 -5523517.648 -18213857.229 10 0 59250 84600.00000 0 15348320.283 -3807989.460 -20005414.711 10 0 59250 85500.00000 0 13735369.250 -1822014.903 -21408100.574 10 0 59251 0.00000 0 12190688.052 399113.167 -22394666.601 10 0 59251 900.00000 0 10765591.836 2809376.031 -22945957.698 10 0 59251 1800.00000 0 9502936.839 5353702.880 -23051282.218 10 0 59251 2700.00000 0 8435416.494 7970030.646 -22708617.745 10 0 59251 3600.00000 0 7584301.714 10591663.801 -21924648.538 10 0 59251 4500.00000 0 6958678.678 13149837.006 -20714633.987 10 0 59251 5400.00000 0 6555214.533 15576374.426 -19102110.779 10 0 59251 6300.00000 0 6358460.100 17806335.597 -17118434.408 10 0 59251 7200.00000 0 6341675.908 19780538.028 -14802168.832 10 0 59251 8100.00000 0 6468145.884 21447851.883 -12198335.950 10 0 59251 9000.00000 0 6692922.494 22767171.420 -9357539.341 10 0 59251 9900.00000 0 6964928.967 23708981.276 -6334979.307 10 0 59251 10800.00000 0 7229329.076 24256452.621 -3189378.428 10 0 59251 11700.00000 0 7430063.687 24406023.914 18161.311 10 0 59251 12600.00000 0 7512446.196 24167442.552 3225347.210 10 0 59251 13500.00000 0 7425706.542 23563266.470 6369906.958 10 0 59251 14400.00000 0 7125375.666 22627847.337 9390798.280 10 0 59251 15300.00000 0 6575409.150 21405838.809 12229393.308 10 0 59251 16200.00000 0 5749959.850 19950293.094 14830614.600 10 0 59251 17100.00000 0 4634724.159 18320426.167 17144000.864 10 0 59251 18000.00000 0 3227804.638 16579145.662 19124681.915 10 0 59251 18900.00000 0 1540051.934 14790445.049 20734244.453 10 0 59251 19800.00000 0 -405129.266 13016772.929 21941472.492 10 0 59251 20700.00000 0 -2572503.145 11316487.124 22722948.682 10 0 59251 21600.00000 0 -4916225.573 9741499.249 23063505.518 10 0 59251 22500.00000 0 -7381517.138 8335207.410 22956518.188 10 0 59251 23400.00000 0 -9906718.026 7130802.559 22404033.641 10 0 59251 24300.00000 0 -12425640.607 6150018.378 21416733.439 10 0 59251 25200.00000 0 -14870123.152 5402376.151 20013730.858 10 0 59251 26100.00000 0 -17172679.535 4884955.568 18222205.695 10 0 59251 27000.00000 0 -19269135.567 4582700.483 16076883.221 10 0 59251 27900.00000 0 -21101142.887 4469246.351 13619366.558 10 0 59251 28800.00000 0 -22618465.928 4508234.276 10897334.736 10 0 59251 29700.00000 0 -23780946.684 4655056.055 7963621.292 10 0 59251 30600.00000 0 -24560065.161 4858956.326 4875190.794 10 0 59251 31500.00000 0 -24940029.947 5065402.754 1692033.011 10 0 59251 32400.00000 0 -24918353.051 5218623.564 -1524003.791 10 0 59251 33300.00000 0 -24505884.670 5264204.435 -4710417.515 10 0 59251 34200.00000 0 -23726306.329 5151634.094 -7805270.840 10 0 59251 35100.00000 0 -22615103.707 4836689.919 -10748399.550 10 0 59251 36000.00000 0 -21218062.469 4283561.552 -13482586.466 10 0 59251 36900.00000 0 -19589350.564 3466621.642 -15954677.509 10 0 59251 37800.00000 0 -17789267.914 2371767.733 -18116617.829 10 0 59251 38700.00000 0 -15881758.198 997277.483 -19926387.621 10 0 59251 39600.00000 0 -13931787.459 -645859.924 -21348819.363 10 0 59251 40500.00000 0 -12002699.461 -2534151.313 -22356280.740 10 0 59251 41400.00000 0 -10153658.488 -4632338.415 -22929210.327 10 0 59251 42300.00000 0 -8437286.374 -6894638.190 -23056495.874 10 0 59251 43200.00000 0 -6897592.070 -9266433.728 -22735688.241 10 0 59251 44100.00000 0 -5568279.645 -11686346.015 -21973047.092 10 0 59251 45000.00000 0 -4471504.632 -14088600.831 -20783417.601 10 0 59251 45900.00000 0 -3617129.731 -16405592.774 -19189940.636 10 0 59251 46800.00000 0 -3002509.901 -18570540.064 -17223601.950 10 0 59251 47700.00000 0 -2612814.712 -20520119.749 -14922629.012 10 0 59251 48600.00000 0 -2421873.233 -22196973.745 -12331747.036 10 0 59251 49500.00000 0 -2393504.728 -23551981.326 -9501308.497 10 0 59251 50400.00000 0 -2483278.104 -24546203.271 -6486313.053 10 0 59251 51300.00000 0 -2640624.816 -25152416.622 -3345337.011 10 0 59251 52200.00000 0 -2811215.137 -25356176.091 -139393.261 10 0 59251 53100.00000 0 -2939496.540 -25156357.979 3069255.716 10 0 59251 54000.00000 0 -2971286.127 -24565164.299 6218308.428 10 0 59251 54900.00000 0 -2856306.853 -23607587.398 9246634.671 10 0 59251 55800.00000 0 -2550559.761 -22320358.107 12095461.671 10 0 59251 56700.00000 0 -2018431.496 -20750422.016 14709512.995 10 0 59251 57600.00000 0 -1234447.628 -18953008.109 17038078.180 10 0 59251 58500.00000 0 -184597.371 -16989370.917 19035992.541 10 0 59251 59400.00000 0 1132826.688 -14924300.679 20664508.660 10 0 59251 60300.00000 0 2706909.915 -12823505.335 21892043.258 10 0 59251 61200.00000 0 4514332.251 -10750973.298 22694785.573 10 0 59251 62100.00000 0 6520112.154 -8766426.362 23057156.125 10 0 59251 63000.00000 0 8678848.045 -6922968.081 22972107.459 10 0 59251 63900.00000 0 10936406.697 -5265024.832 22441261.322 10 0 59251 64800.00000 0 13231989.564 -3826664.333 21474879.682 10 0 59251 65700.00000 0 15500492.282 -2630360.839 20091669.909 10 0 59251 66600.00000 0 17675060.136 -1686257.678 18318427.433 10 0 59251 67500.00000 0 19689734.029 -991957.165 16189522.154 10 0 59251 68400.00000 0 21482077.318 -532845.985 13746237.757 10 0 59251 69300.00000 0 22995674.281 -282941.845 11035976.036 10 0 59251 70200.00000 0 24182395.978 -206225.281 8111340.974 10 0 59251 71100.00000 0 25004338.614 -258400.055 5029119.831 10 0 59251 72000.00000 0 25435352.890 -389007.413 1849180.868 10 0 59251 72900.00000 0 25462099.815 -543804.348 -1366690.889 10 0 59251 73800.00000 0 25084588.212 -667304.615 -4555997.000 10 0 59251 74700.00000 0 24316170.966 -705374.251 -7656744.092 10 0 59251 75600.00000 0 23182999.825 -607770.853 -10608653.255 10 0 59251 76500.00000 0 21722961.524 -330518.139 -13354336.233 10 0 59251 77400.00000 0 19984139.872 161985.639 -15840414.872 10 0 59251 78300.00000 0 18022868.413 895215.657 -18018561.706 10 0 59251 79200.00000 0 15901455.450 1883199.914 -19846441.175 10 0 59251 80100.00000 0 13685676.902 3127686.799 -21288533.101 10 0 59251 81000.00000 0 11442141.981 4617836.930 -22316822.563 10 0 59251 81900.00000 0 9235641.720 6330453.300 -22911343.053 10 0 59251 82800.00000 0 7126590.959 8230740.994 -23060562.650 10 0 59251 83700.00000 0 5168670.082 10273565.630 -22761606.100 10 0 59251 84600.00000 0 3406764.276 12405158.750 -22020308.739 10 0 59251 85500.00000 0 1875285.516 14565199.571 -20851101.400 99